ORBCOMM-X 1 21576U 91050C 26093.62634579 .00000535 00000+0 17070-3 0 9998 2 21576 98.3019 158.7587 0004281 44.9426 315.2111 14.43537249824019 ORBCOMM FM01 1 23545U 95017A 26093.62665442 .00014188 00000+0 12978-2 0 9996 2 23545 69.9610 67.2624 0007143 251.3472 108.6910 14.95076003655846 ORBCOMM FM02 1 23546U 95017B 26093.42553526 .00019497 00000+0 16834-2 0 9997 2 23546 69.9606 85.5785 0008501 251.2423 108.7813 14.97226808655505 ORBCOMM FM08 1 25112U 97084A 26093.61751456 .00002788 00000+0 79701-3 0 9995 2 25112 45.0138 52.3244 0007887 292.0253 67.9761 14.47071916483424 ORBCOMM FM10 1 25113U 97084B 26093.57823334 .00003082 00000+0 88194-3 0 9990 2 25113 45.0150 55.4686 0005765 265.9989 94.0203 14.46794016658553 ORBCOMM FM11 1 25114U 97084C 26093.63436056 .00002881 00000+0 83160-3 0 9993 2 25114 45.0133 56.3740 0006564 265.2968 94.7134 14.46527683483510 ORBCOMM FM12 1 25115U 97084D 26093.59232770 .00002649 00000+0 76748-3 0 9992 2 25115 45.0140 56.2916 0005622 265.9180 94.1029 14.46556387483307 ORBCOMM FM09 1 25116U 97084E 26093.58560379 .00002427 00000+0 70928-3 0 9999 2 25116 45.0153 57.6034 0006445 251.8717 108.1433 14.46375748483509 ORBCOMM FM05 1 25117U 97084F 26093.56099769 .00002830 00000+0 80687-3 0 9999 2 25117 45.0141 52.5430 0003442 280.7991 79.2474 14.47181638482652 ORBCOMM FM06 1 25118U 97084G 26093.62295626 .00003329 00000+0 93840-3 0 9996 2 25118 45.0139 51.6120 0002539 294.1512 235.1950 14.47369205483583 ORBCOMM FM07 1 25119U 97084H 26093.60225012 .00002860 00000+0 81177-3 0 9996 2 25119 45.0136 52.4504 0004046 272.1225 87.9164 14.47368829483578 ORBCOMM FM03 1 25158U 98007B 26093.62513184 .00001718 00000+0 63721-3 0 9993 2 25158 107.9616 12.5838 0042570 99.8565 260.7385 14.35364968465702 ORBCOMM FM04 1 25159U 98007C 26093.63032684 .00001695 00000+0 62776-3 0 9999 2 25159 107.9605 16.0077 0038522 96.8463 263.7062 14.35588945465899 ORBCOMM FM17 1 25413U 98046A 26093.34429188 .00001299 00000+0 49339-3 0 9992 2 25413 44.9955 327.4642 0001916 236.0658 124.0008 14.35796213444860 ORBCOMM FM18 1 25414U 98046B 26093.40638009 .00002001 00000+0 68067-3 0 9995 2 25414 44.9923 236.5433 0004215 287.2415 72.7973 14.39515897446052 ORBCOMM FM19 1 25415U 98046C 26093.39509036 .00002131 00000+0 72452-3 0 9998 2 25415 44.9931 239.0323 0003160 274.7444 111.1731 14.39344069446005 ORBCOMM FM20 1 25416U 98046D 26093.39881209 .00001629 00000+0 58070-3 0 9995 2 25416 44.9935 246.1234 0000800 228.6293 131.4487 14.37952743446025 ORBCOMM FM16 1 25417U 98046E 26093.65066851 .00002417 00000+0 80654-3 0 9992 2 25417 44.9922 232.4047 0003717 303.2421 56.8071 14.39911338446100 ORBCOMM FM15 1 25418U 98046F 26092.72959914 .00001429 00000+0 49926-3 0 9990 2 25418 44.9962 242.8271 0003328 301.2264 58.8258 14.39524906445952 ORBCOMM FM14 1 25419U 98046G 26093.36029404 .00002170 00000+0 72764-3 0 9994 2 25419 44.9944 237.1396 0002415 285.9917 74.0666 14.39971868446022 ORBCOMM FM13 1 25420U 98046H 26093.39927230 .00001716 00000+0 60229-3 0 9991 2 25420 44.9965 247.9827 0004599 284.7814 75.2524 14.38508966445011 ORBCOMM FM21 1 25475U 98053A 26093.06594700 .00001267 00000+0 46090-3 0 9996 2 25475 45.0096 335.9721 0001069 281.4000 78.6728 14.38067224438965 ORBCOMM FM22 1 25476U 98053B 26093.63661580 .00001740 00000+0 60047-3 0 9995 2 25476 45.0086 325.5525 0002533 254.9961 105.0608 14.39314022439101 ORBCOMM FM23 1 25477U 98053C 26093.64650289 .00001567 00000+0 55607-3 0 9994 2 25477 45.0095 334.8399 0001834 257.8676 102.1967 14.38339651439203 ORBCOMM FM24 1 25478U 98053D 26093.32294619 .00001595 00000+0 55792-3 0 9997 2 25478 45.0090 332.4897 0001667 268.3773 91.6885 14.38991511439227 ORBCOMM FM25 1 25479U 98053E 26093.64778077 .00001595 00000+0 55836-3 0 9997 2 25479 45.0083 329.2674 0004026 272.3981 87.6407 14.38953411439564 ORBCOMM FM26 1 25480U 98053F 26093.37629018 .00001324 00000+0 48131-3 0 9999 2 25480 45.0078 329.2503 0006049 285.1927 74.8252 14.37874477439402 ORBCOMM FM27 1 25481U 98053G 26093.07288994 .00001537 00000+0 53923-3 0 9992 2 25481 45.0067 332.0810 0000736 331.4790 28.6018 14.38996154439410 ORBCOMM FM28 1 25482U 98053H 26093.49857252 .00001645 00000+0 57291-3 0 9990 2 25482 45.0049 267.2454 0003710 313.0826 46.9712 14.39086250440161 ORBCOMM FM30 1 25980U 99065A 26093.47234142 .00001300 00000+0 47203-3 0 9992 2 25980 45.0306 154.9135 0005021 6.4750 353.6163 14.38036978376228 ORBCOMM FM31 1 25981U 99065B 26093.45983974 .00001258 00000+0 45911-3 0 9991 2 25981 45.0218 148.4110 0001996 25.9951 334.0997 14.37956422375779 ORBCOMM FM32 1 25982U 99065C 26093.48865823 .00001248 00000+0 46442-3 0 9996 2 25982 45.0145 166.7848 0004052 35.9992 324.1129 14.37019108376344 ORBCOMM FM33 1 25983U 99065D 26092.93937915 .00001640 00000+0 55129-3 0 9996 2 25983 45.0288 60.4800 0006949 69.6695 290.4901 14.40846575377841 ORBCOMM FM36 1 25984U 99065E 26093.48287781 .00001770 00000+0 61325-3 0 9996 2 25984 45.0382 154.1906 0004257 290.1494 69.8897 14.39052706376229 ORBCOMM FM35 1 25985U 99065F 26093.54054406 .00001562 00000+0 55912-3 0 9994 2 25985 45.0384 161.3533 0001664 29.4996 330.5946 14.37939041376561 ORBCOMM FM34 1 25986U 99065G 26093.44349259 .00001249 00000+0 45720-3 0 9995 2 25986 45.0381 162.3408 0003460 325.9607 34.1019 14.37838722376663 ORBCOMM FM38 1 33060U 08031A 26093.45571005 .00003401 00000+0 44175-3 0 9992 2 33060 48.4412 10.3603 0004756 217.6173 142.4411 14.82850869957806 ORBCOMM FM41 1 33061U 08031B 26093.23728128 .00003109 00000+0 41078-3 0 9993 2 33061 48.4445 20.2365 0003855 201.2381 314.0044 14.82375614957244 ORBCOMM FM29 1 33062U 08031C 26093.53464758 .00003362 00000+0 44005-3 0 9997 2 33062 48.4396 26.1974 0005461 200.7904 329.9812 14.82556817957201 ORBCOMM FM39 1 33063U 08031D 26093.15982183 .00003164 00000+0 43206-3 0 9995 2 33063 48.4397 55.6305 0006084 167.1145 192.9927 14.80919728956759 ORBCOMM FM37 1 33064U 08031E 26093.59463955 .00003162 00000+0 42986-3 0 9997 2 33064 48.4398 41.6342 0004897 191.0555 339.3502 14.81113062957078 ORBCOMM FM40 1 33065U 08031F 26093.56607620 .00004299 00000+0 53901-3 0 9995 2 33065 48.4421 20.5260 0006020 206.9577 323.8552 14.83793080957250 VESSELSAT 1 1 37840U 11058C 26093.46124243 .00000416 00000+0 82297-4 0 9995 2 37840 19.9607 137.3330 0013721 139.1607 220.9827 14.11426082747363 ORBCOMM FM109 1 40086U 14040A 26093.37628592 .00000989 00000+0 24593-3 0 9990 2 40086 47.0027 85.1628 0002439 255.5992 104.4623 14.58762211623429 ORBCOMM FM107 1 40087U 14040B 26093.38947839 .00001171 00000+0 28392-3 0 9995 2 40087 47.0044 85.9391 0001092 227.0781 133.0013 14.58848987623503 ORBCOMM FM106 1 40088U 14040C 26093.40744047 .00001707 00000+0 31003-3 0 9993 2 40088 47.0597 244.3737 0016481 333.5851 26.4198 14.70368090626172 ORBCOMM FM111 1 40089U 14040D 26093.54046450 .00005044 00000+0 55601-3 0 9990 2 40089 47.0008 53.3067 0027911 145.9597 214.3098 14.88498175633459 ORBCOMM FM104 1 40090U 14040E 26093.49438979 .00000828 00000+0 21900-3 0 9997 2 40090 47.0038 122.5869 0015087 92.1277 268.1336 14.57203643622957 ORBCOMM FM103 1 40091U 14040F 26093.44737355 .00001094 00000+0 26829-3 0 9994 2 40091 47.0045 86.4054 0001538 207.6315 152.4489 14.58752699606476 ORBCOMM FM114 1 41179U 15081A 26093.12010361 .00000938 00000+0 23497-3 0 9998 2 41179 47.0067 356.8886 0002447 229.7468 130.3204 14.58771822546796 ORBCOMM FM119 1 41180U 15081B 26093.46281663 .00001003 00000+0 24917-3 0 9994 2 41180 46.9999 264.6295 0001464 281.0148 79.0573 14.58714211548096 ORBCOMM FM105 1 41181U 15081C 26093.55593323 .00000444 00000+0 16914-3 0 9990 2 41181 47.0014 297.6376 0001808 196.4236 163.6586 14.45515750542756 ORBCOMM FM110 1 41182U 15081D 26093.45165664 .00001619 00000+0 37929-3 0 9997 2 41182 47.0039 354.7860 0002398 82.9950 277.1209 14.58788376546717 ORBCOMM FM118 1 41183U 15081E 26093.41781211 .00001624 00000+0 38030-3 0 9996 2 41183 47.0057 355.2665 0002800 38.3798 321.7286 14.58785296546810 ORBCOMM FM112 1 41184U 15081F 26093.48918818 .00001180 00000+0 28621-3 0 9991 2 41184 46.9985 263.4177 0002347 225.2411 134.8284 14.58783024548047 ORBCOMM FM113 1 41185U 15081G 26093.53496515 .00001062 00000+0 26120-3 0 9994 2 41185 47.0000 263.5736 0002027 234.0275 126.0423 14.58775441548032 ORBCOMM FM115 1 41186U 15081H 26093.05728236 .00001050 00000+0 23606-3 0 9993 2 41186 46.9974 100.2286 0001810 297.9755 62.0949 14.63168366550211 ORBCOMM FM108 1 41187U 15081J 26093.49768766 .00001528 00000+0 36005-3 0 9991 2 41187 47.0042 175.2996 0003393 225.7299 134.3309 14.58789984549175 ORBCOMM FM117 1 41188U 15081K 26093.60005708 .00001449 00000+0 34331-3 0 9997 2 41188 47.0005 173.4726 0003863 229.8213 130.2335 14.58785695549235 ORBCOMM FM116 1 41189U 15081L 26093.44393788 .00001139 00000+0 27748-3 0 9998 2 41189 47.0018 263.9982 0001132 86.4804 273.6212 14.58779430548021